This is the latest recevied weather packets stored in our database for station/object K7SPS-10. If no packets are shown the sender has not sent any weather packets the latest 10 day(s).
| Time | Temp. | Humidity | Pressure | Rain* | Wind** | Luminosity | Snow |
|---|---|---|---|---|---|---|---|
| 1778305116 | 17.22° C | 37% | 1017.5 hPa | 0 mm | - | 0 W/m² | - |
| 1778304813 | 17.78° C | 36% | 1017.6 hPa | 0 mm | - | 0 W/m² | - |
| 1778304512 | 17.78° C | 34% | 1017.4 hPa | 0 mm | - | 0 W/m² | - |
| 1778304209 | 17.22° C | 37% | 1017.5 hPa | 0 mm | - | 0 W/m² | - |
| 1778303906 | 17.22° C | 37% | 1017.1 hPa | 0 mm | - | 0 W/m² | - |
| 1778303604 | 16.67° C | 41% | 1017.1 hPa | 0 mm | - | 0 W/m² | - |
| 1778303300 | 17.22° C | 39% | 1017.5 hPa | 0 mm | - | 0 W/m² | - |
| 1778302997 | 16.67° C | 41% | 1017.1 hPa | 0 mm | - | 0 W/m² | - |
| 1778302694 | 16.67° C | 42% | 1017.3 hPa | 0 mm | - | 0 W/m² | - |
| 1778302391 | 17.22° C | 41% | 1017.1 hPa | 0 mm | - | 0 W/m² | - |
| 1778302089 | 16.67° C | 42% | 1017.1 hPa | 0 mm | - | 0 W/m² | - |
| 1778301786 | 17.22° C | 42% | 1017 hPa | 0 mm | - | 0 W/m² | - |
| 1778301482 | 17.78° C | 40% | 1017 hPa | 0 mm | - | 0 W/m² | - |
| 1778301178 | 17.78° C | 40% | 1016.8 hPa | 0 mm | - | 0 W/m² | - |
| 1778300874 | 17.78° C | 39% | 1016.7 hPa | 0 mm | - | 0 W/m² | - |
| 1778300571 | 17.78° C | 39% | 1016.7 hPa | 0 mm | - | 0 W/m² | - |
| 1778300268 | 18.33° C | 38% | 1016.6 hPa | 0 mm | - | 0 W/m² | - |
| 1778299965 | 18.33° C | 38% | 1016.5 hPa | 0 mm | - | 0 W/m² | - |
| 1778299663 | 18.89° C | 37% | 1016.3 hPa | 0 mm | - | 0 W/m² | - |
| 1778299360 | 18.89° C | 36% | 1016.5 hPa | 0 mm | - | 0 W/m² | - |
| 1778299056 | 19.44° C | 36% | 1016 hPa | 0 mm | - | 0 W/m² | - |
| 1778298753 | 19.44° C | 35% | 1016.2 hPa | 0 mm | - | 0 W/m² | - |
| 1778298451 | 18.89° C | 36% | 1015.9 hPa | 0 mm | - | 0 W/m² | - |
| 1778298148 | 18.33° C | 38% | 1015.6 hPa | 0 mm | - | 0 W/m² | - |
| 1778297845 | 19.44° C | 36% | 1015.6 hPa | 0 mm | - | 0 W/m² | - |
* Rain latest hour (hover to see other rain measurements)
** Current wind speed in m/s (hover to see current wind gust speed)